Location: Ozark
(37.5425°N, 88.7628°W)
Time: 07:22:52
(UTC+00:00)

Cosmos 2341 Rocket - Pass Details

Date: 26 January 2020
Orbit: 967 x 1005 km, 82.9° (Epoch: 20 February)

Event Time Altitude Azimuth Distance (km) Brightness Sun altitude
Rises 23:37:31 0° 188° (S) 3,715 7.4 -5.5°
Reaches altitude 10° 23:40:03 10° 189° (S) 2,766 6.8 -6.0°
Maximum altitude 23:46:25 81° 276° (W) 1,014 4.2 -7.2°
Drops below altitude 10° 23:52:47 10° 5° (N) 2,763 6.2 -8.4°
Sets 23:55:18 0° 6° (N) 3,710 6.8 -8.9°
